Borger, TX

7:44 PM CDT on August 17, 2017 (GMT -0500)
Hutchinson County

Weather History for KBGD - April, 2014

Change the Weather History Date:

Wednesday, April 2, 2014

  Actual Average Record
Temperature  
Mean Temperature 69 °F 55 °F  
Max Temperature 87 °F 69 °F 89 °F (2011)
Min Temperature 50 °F 41 °F 22 °F (1970)
Degree Days  
Heating Degree Days 0 11  
Month to date heating degree days 10 22  
Since 1 July heating degree days 3590 3499  
Cooling Degree Days 4 0  
Month to date cooling degree days 4 0  
Year to date cooling degree days 6 7  
Growing Degree Days 18 (Base 50)    
Moisture  
Dew Point 15 °F    
Average Humidity 28    
Maximum Humidity 51    
Minimum Humidity 4    
Precipitation  
Precipitation 0.00 in 0.06 in 1.03 in (1973)
Month to date precipitation 0.00 0.11  
Year to date precipitation 0.45 2.73  
Snow  
Snow 0.00 in - 0.50 in (1988)
Month to date snowfall 0.0  
Since 1 July snowfall 13.6  
Snow Depth 0.00 in    
Sea Level Pressure  
Sea Level Pressure 29.56 in    
Wind  
Wind Speed 14 mph (SSW)    
Max Wind Speed 26 mph    
Max Gust Speed 37 mph    
Visibility 10 miles    
Events      
T = Trace of Precipitation, MM = Missing Value Source: NWS Daily Summary

Daily Weather History Graph

Daily Weather History Graph

Search for Another Location

Airport or City:

Trip Planner

Search our weather history database for the weather conditions in past years. The results will help you decide how hot, cold, wet, or windy it might be!

Date:

Astronomy

Apr. 02, 2014 Rise Set
Actual Time 7:30 AM CDT 8:08 PM CDT
Civil Twilight 7:04 AM CDT 8:33 PM CDT
Nautical Twilight 6:34 AM CDT 9:04 PM CDT
Astronomical Twilight 6:03 AM CDT 9:35 PM CDT
Moon 9:21 AM CDT (4/2) 11:26 PM CDT (4/2)
Length of Visible Light 13h 29m
Length of Day
12h 37m
Waxing Crescent, 10% of the Moon is Illuminated
Apr 2
Waxing Crescent
Apr 7
First Quarter
Apr 15
Full
Apr 22
Last Quarter
Apr 29
New

Hourly Weather History & Observations

Time (CDT) Temp. Dew Point Humidity Pressure Visibility Wind Dir Wind Speed Gust Speed Precip Events Conditions
12:51 AM 60.1 °F 39.0 °F 46% 29.69 in 10.0 mi SSE 20.7 mph 31.1 mph N/A   Clear
1:51 AM 59.0 °F 39.9 °F 49% 29.67 in 10.0 mi SSE 15.0 mph 27.6 mph N/A   Clear
2:51 AM 57.9 °F 39.9 °F 51% 29.65 in 10.0 mi South 10.4 mph - N/A   Clear
3:51 AM 57.0 °F 37.0 °F 47% 29.63 in 10.0 mi South 9.2 mph - N/A   Clear
4:51 AM 53.1 °F 30.9 °F 43% 29.62 in 10.0 mi SSW 5.8 mph - N/A   Clear
5:51 AM 50.0 °F 25.0 °F 38% 29.64 in 10.0 mi South 8.1 mph - N/A   Clear
7:51 AM 57.9 °F 8.1 °F 14% 29.64 in 10.0 mi SW 13.8 mph 23.0 mph N/A   Clear
8:51 AM 55.9 °F 12.9 °F 18% 29.68 in 10.0 mi Calm Calm - N/A   Clear
9:51 AM 68.0 °F 9.0 °F 10% 29.66 in 10.0 mi WSW 8.1 mph - N/A   Clear
10:51 AM 75.9 °F 6.1 °F 7% 29.64 in 10.0 mi SW 16.1 mph 26.5 mph N/A   Clear
11:51 AM 80.1 °F -0.9 °F 4% 29.62 in 10.0 mi WSW 19.6 mph 28.8 mph N/A   Clear
1:51 PM 84.0 °F 1.0 °F 4% 29.56 in 10.0 mi WSW 21.9 mph 32.2 mph N/A   Clear
2:51 PM 84.9 °F 3.0 °F 4% 29.52 in 10.0 mi SW 16.1 mph 29.9 mph N/A   Clear
3:51 PM 84.9 °F 3.9 °F 5% 29.49 in 10.0 mi SW 26.5 mph 35.7 mph N/A   Clear
4:51 PM 87.1 °F 6.1 °F 5% 29.47 in 10.0 mi South 17.3 mph 25.3 mph N/A   Clear
5:51 PM 86.0 °F 8.1 °F 5% 29.44 in 10.0 mi SSW 16.1 mph 32.2 mph N/A   Clear
6:51 PM 84.0 °F 12.0 °F 7% 29.43 in 10.0 mi SSW 17.3 mph 27.6 mph N/A   Clear
7:51 PM 81.0 °F 12.0 °F 7% 29.44 in 10.0 mi SSW 18.4 mph 27.6 mph N/A   Clear
8:51 PM 75.9 °F 10.9 °F 8% 29.47 in 10.0 mi South 13.8 mph - N/A   Clear
9:51 PM 73.0 °F 10.0 °F 9% 29.48 in 10.0 mi SSW 10.4 mph 19.6 mph N/A   Clear
10:51 PM 73.0 °F 12.0 °F 10% 29.48 in 10.0 mi SW 13.8 mph 21.9 mph N/A   Clear
11:51 PM 72.0 °F 12.9 °F 10% 29.46 in 10.0 mi SW 15.0 mph 21.9 mph N/A   Mostly Cloudy